Printer-friendly version

IAU Minor Planet Center

Minor Planet Center

MPEC 2006-V20 : COMET C/2006 P1 (McNAUGHT)

The following Minor Planet Electronic Circular may be linked-to from your own Web pages, but must not otherwise be redistributed electronically.


Read MPEC 2006-V19 Read MPEC 2006-V21


M.P.E.C. 2006-V20                                Issued 2006 Nov. 8, 15:41 UT

     The Minor Planet Electronic Circulars contain information on unusual
         minor planets and routine data on comets.  They are published
   on behalf of Commission 20 of the International Astronomical Union by the
          Minor Planet Center, Smithsonian Astrophysical Observatory,
                          Cambridge, MA 02138, U.S.A.

             Prepared using the Tamkin Foundation Computer Network

                              MPC@CFA.HARVARD.EDU
          URL http://cfa-www.harvard.edu/iau/mpc.html  ISSN 1523-6714

                          COMET C/2006 P1 (McNAUGHT)

Observations:
    CK06P010  C2006 10 25.38458 16 38 59.50 -14 04 34.9                 EV020349
    CK06P010  C2006 10 25.38625 16 38 59.58 -14 04 34.8                 EV020349
    CK06P010  C2006 10 25.38791 16 38 59.67 -14 04 34.7          12.9 T EV020349
    CK06P010  C2006 10 30.39567 16 43 31.00 -13 53 29.5                 EV020E12
    CK06P010  C2006 10 31.39844 16 44 28.71 -13 51 09.5                 EV020E12
    CK06P010  C2006 10 31.40088 16 44 28.87 -13 51 09.4                 EV020E12
    CK06P010  C2006 11 01.39596 16 45 27.29 -13 48 47.9                 EV020E12
    CK06P010  C2006 11 01.39832 16 45 27.42 -13 48 47.6                 EV020E12

Observer details:
349 Ageo.  Observer K. Kadota.  0.25-m f/5.0 reflector + CCD.
E12 Siding Spring Survey.  Observer R. H. McNaught.  0.5-m Uppsala Schmidt
    + CCD.

Orbital elements:
    C/2006 P1 (McNaught)
Epoch 2007 Jan. 20.0 TT = JDT 2454120.5
T 2007 Jan. 12.79895 TT                                 MPC
q   0.1707278            (2000.0)            P               Q
z  -0.0000793      Peri.  155.97648     +0.12688369     -0.17388671
 +/-0.0000484      Node   267.41500     +0.67530164     +0.73626607
e   1.0000135      Incl.   77.83694     +0.72654541     -0.65396917
Residuals in seconds of arc
060807 E12  0.1+  0.3-    060822 A02  0.3+  0.3+    060915 423  0.4+  0.0
060807 E12  0.1+  0.1-    060822 A02  0.9+  0.0     060915 E12  0.0   0.3-
060807 E12  0.1+  0.1-    060822 A77  0.7-  1.0-    060917 850  0.2-  0.1-
060807 E12  0.3-  0.7-    060822 A77  1.1-  1.6+    060917 850  0.1+  0.0
060807 I77  1.1+  0.0     060822 A77 (7.0+  2.0+)   060917 850  0.1+  0.1-
060807 I77  0.2+  0.1-    060822 A77  0.7+  0.0     060917 850  0.2-  0.2+
060807 I77  0.1+  0.0     060822 A77 (1.6+  4.4+)   060917 E12  0.1-  0.2+
060808 E12  0.4-  0.3-    060822 A77 (0.5+  4.2+)   060918 E12  0.0   0.2-
060808 E12  0.2+  0.3-    060822 A77 (3.3+  0.6+)   060919 E12  0.0   0.0
060808 E12  0.2+  0.3-    060823 E12  0.1+  0.1-    060920 E12  0.0   0.1-
060808 E12  0.1-  0.1-    060823 423  0.2+  0.2-    060921 E12  0.1+  0.3+
060809 E12  0.3-  0.2-    060823 423  0.9-  0.3-    060921 215  0.0   0.0
060809 E12  0.3-  0.5-    060823 E12  0.0   0.1-    060921 215  0.1+  0.4+
060809 E12  0.1-  0.2-    060825 E12  0.3+  0.3-    060921 215  0.3-  0.2-
060809 E12  0.2+  0.2+    060826 673  0.3-  0.4-    060922 E12  0.0   0.0
060810 E12  0.1-  0.4-    060826 673  0.3+  0.2-    060922 E12  0.1-  0.1-
060810 E12  0.2-  0.5-    060826 673  0.2+  0.4-    060923 E12  0.1-  0.0
060810 E12  0.4-  0.5-    060826 673  0.2-  0.1+    060923 349  0.4-  0.4-
060810 A77  0.1+  0.9+    060826 E12  0.2-  0.2-    060923 349  0.2-  0.1-
060810 A77  1.0-  1.3-    060826 A79  0.8+  0.3+    060925 E12  0.1-  0.0
060810 A77  0.7-  1.3-    060826 A79  1.2+  1.0+    060925 J76  0.4+  0.1-
060810 A77 (2.9-  1.8-)   060826 A79  0.4+  0.7+    060925 J76  0.1+  0.2+
060811 E12  0.2-  0.1-    060827 E12  0.1-  0.3-    060925 J76  0.5+  0.0
060811 E12  0.0   0.2-    060827 E12  0.1+  0.5-    060926 E12  0.2-  0.1-
060811 E12  0.1-  0.4-    060827 A79  1.1+  1.0+    060927 E12  0.0   0.1-
060811 E12  0.2+  0.3-    060827 A79  0.3+  0.3+    061001 E12  0.0   0.2-
060813 423  0.3+  0.3-    060827 J76  0.0   1.5+    061002 E12  0.1-  0.3-
060813 423  0.5+  0.0     060827 J76  0.6+  0.4+    061003 E12  0.0   0.1-
060813 415  0.6-  0.1-    060827 J76  0.7+  1.3+    061004 E12  0.0   0.2-
060813 349  0.5-  0.5+    060828 E12  0.1-  0.3-    061005 E12  0.1-  0.3-
060813 415  0.0   0.5-    060828 E12  0.5+  0.2-    061007 E12  0.0   0.3-
060813 349  0.2-  0.7+    060830 A77  0.3+  0.0     061008 E12  0.1-  0.1-
060813 D35  0.8-  0.2-    060830 A77  0.5+  0.0     061009 E12  0.0   0.2-
060813 D35  0.6-  0.3-    060830 A77 (4.3-  2.6+)   061010 E12  0.1-  0.2-
060813 D35  0.5-  0.1-    060830 A77  1.9-  1.9+    061011 E12  0.1-  0.3-
060814 D88  0.6+  0.7+    060830 A77  0.5+  1.2+    061012 E12  0.1-  0.0
060814 D88  0.8+  0.4+    060830 A77 (1.5+  2.5-)   061012 E12  0.1-  0.0
060814 D88  0.2+  0.1+    060830 A77 (1.6+  2.5-)   061013 E12  0.1-  0.1-
060815 104  0.0   0.2+    060830 A77  0.3-  0.6+    061014 232  0.2-  0.6+
060815 104  0.0   0.1-    060830 A77 (0.3-  3.1+)   061014 232  0.3+  0.3+
060815 104  0.2-  0.1+    060830 A77 (0.8-  3.7-)   061014 232  1.5+  0.0
060816 423  0.6+  0.0     060830 A77 (1.7-  3.7+)   061015 349  0.3-  0.1+
060817 557  0.4-  0.2+    060831 E12  0.1-  0.3-    061015 349  0.3-  0.1+
060817 557  0.2+  0.1+    060831 D88  0.8+  1.1-    061015 349  0.1-  0.3+
060817 557  0.5+  0.3+    060831 D88  0.5+  0.1-    061019 E12  0.2-  0.1-
060817 557  0.2+  0.5-    060831 D88  0.4-  0.1+    061021 E12  0.2-  0.0
060817 557  0.5-  0.0     060903 E12  0.0   0.1-    061021 E12  0.1-  0.0
060817 557  0.2+  0.4+    060905 E12  0.0   0.1-    061022 E12  0.2-  0.1-
060819 232  0.3-  0.2-    060905 E12  0.1-  0.1-    061024 E12  0.3-  0.2-
060819 232  0.5-  0.1-    060907 E12  0.0   0.2-    061025 349  0.4+  0.8+
060819 232  0.6-  0.2-    060907 E12  0.1-  0.1-    061025 349  0.3+  0.7+
060820 E12  0.1-  0.2-    060908 E12  0.1-  0.0     061025 349  0.4+  0.6+
060821 644  0.2-  0.0     060908 E12  0.1-  0.2-    061026 E12  0.0   0.1-
060821 644  0.1-  0.1+    060910 844  0.3-  1.4-    061026 E12  0.1-  0.1-
060821 644  0.0   0.2+    060910 844 (0.5-  3.7-)   061027 E12  0.1-  0.1-
060821 E12  0.0   0.2-    060911 E12  0.3-  0.1+    061027 E12  0.1+  0.0
060821 213  0.3+  1.0+    060912 E12  0.0   0.1-    061028 E12  0.1+  0.1-
060821 213  0.3+  1.0+    060913 673  0.2+  0.3-    061029 E12  0.2-  0.1-
060821 213  0.0   0.8+    060913 673  0.1+  0.4-    061029 E12  0.2-  0.1+
060821 213  0.3+  0.8+    060913 673  0.0   0.7-    061029 E12  0.1-  0.2-
060822 E12  0.1-  0.2-    060913 423  0.1-  0.5-    061030 E12  0.2+  0.2-
060822 E12  0.2+  0.1-    060913 423  0.1+  0.2-    061031 E12  0.2-  0.0
060822 204  0.2+  0.3+    060913 E12  0.2-  0.1-    061031 E12  0.1+  0.2-
060822 204  0.2+  0.3+    060913 130  0.9-  0.2-    061101 E12  0.1+  0.1-
060822 204  0.3+  0.5+    060913 130  0.6-  0.5-    061101 E12  0.0   0.1-
060822 A02  0.2-  1.1+    060915 423  0.2-  0.0

     The "original" and "future" barycentric values of 1/a are +0.000059
and +0.000518 (+/- 0.000048) AU^-1, respectively.

Brian G. Marsden             (C) Copyright 2006 MPC           M.P.E.C. 2006-V20

Read MPEC 2006-V19 Read MPEC 2006-V21


Our Web policy. Index to the CBAT/MPC/ICQ pages.


Valid HTML 4.01!